Regional Weather Roundup
Issued by NWS

Home | Current Version | Previous Version | Text Only | Print | Product List | Glossary Off
Versions: 1 2 3 4 5 6 7 8 9 10 11 12 13 14 15 16 17 18 19 20 21 22 23 24 25 26 27 28 29 30 31 32 33 34 35 36 37 38 39 40 41 42 43 44 45 46 47 48 49 50

000
ASUS43 KBIS 251001
RWRND

NORTH DAKOTA REGIONAL WEATHER ROUNDUP
NATIONAL WEATHER SERVICE BISMARCK ND
400 AM CST SUN JAN 25 2015

NOTE: "FAIR" INDICATES FEW OR NO CLOUDS BELOW 12,000 FEET WITH NO
SIGNIFICANT WEATHER AND/OR OBSTRUCTIONS TO VISIBILITY.


NDZ001>003-009>011-017-251100-
NORTHWEST NORTH DAKOTA

CITY           SKY/WX    TMP DP  RH WIND       PRES   REMARKS
WILLISTON      CLOUDY    36  30  79 NW16      30.00R
MINOT          CLOUDY    27  24  89 N5        29.92R FOG
MINOT AFB      FRZ DRZL  26  26 100 NW6       29.93R FOG     WCI  19
$$

NDZ018>021-031>035-040>046-251100-
SOUTHWEST NORTH DAKOTA

CITY           SKY/WX    TMP DP  RH WIND       PRES   REMARKS
BISMARCK       CLOUDY    37  32  82 NW10      29.93R
DICKINSON      MOCLDY    33  29  85 NW13      29.95R
GARRISON         N/A     35  33  92 NW12      29.91R
HETTINGER ARPT CLOUDY    33  28  81 NW17      29.98S
$$

NDZ004>008-012>016-024-026-027-054-251100-
NORTHEAST NORTH DAKOTA

CITY           SKY/WX    TMP DP  RH WIND       PRES   REMARKS
GRAND FORKS    CLOUDY    18  12  77 N9        29.98R WCI   7
GRND FRKS AFB  CLOUDY    17  11  77 N9        29.99R WCI   6
DEVILS LAKE    CLOUDY    16  10  79 NE8       29.94R WCI   5
$$

NDZ022-023-025-028>030-036>039-047>053-251100-
SOUTHEAST NORTH DAKOTA

CITY           SKY/WX    TMP DP  RH WIND       PRES   REMARKS
FARGO          MOCLDY    22  16  78 N12       29.92R WCI  10
JAMESTOWN      CLOUDY    21  18  88 N7        29.92R WCI  12
$$



USA.gov is the U.S. government's official web portal to all federal, state and local government web resources and services.